Total_Precipitation_Accumulation
1.43 1.42 1.46 1.45 1.52 1.64 1.70 1.65 1.69 1.73 1.80 1.73 1.63 1.57 1.46 1.38 1.40 1.47 1.41 1.53 1.56 1.54 1.56 1.59 1.64 1.75 1.89 1.88 1.89 1.94 2.14 2.37 2.26 2.09 1.94 1.78 1.66 1.53 1.35 1.32 1.32 1.23 1.04
1.34 1.33 1.44 1.53 1.51 1.45 1.44 1.45 1.47 1.49 1.49 1.47 1.45 1.46 1.47 1.51 1.52 1.46 1.40 1.39 1.45 1.44 1.49 1.59 1.57 1.71 1.84 1.79 1.87 1.92 2.09 2.36 2.44 2.55 2.55 2.26 1.96 1.76 1.65 1.46 1.17 1.06 1.08
1.27 1.28 1.40 1.39 1.34 1.35 1.45 1.49 1.46 1.43 1.41 1.40 1.40 1.38 1.37 1.49 1.61 1.61 1.55 1.54 1.56 1.46 1.53 1.60 1.54 1.60 1.66 1.69 1.78 1.90 2.06 2.22 2.41 2.46 2.55 2.38 2.18 1.89 1.93 1.69 1.39 1.30 1.04
1.16 1.29 1.45 1.49 1.49 1.54 1.56 1.57 1.51 1.42 1.44 1.46 1.42 1.37 1.37 1.35 1.42 1.56 1.64 1.60 1.56 1.50 1.49 1.47 1.40 1.40 1.47 1.59 1.63 1.81 1.99 2.14 2.26 2.26 2.33 2.39 2.40 2.35 2.33 2.11 1.91 1.66 1.34
1.16 1.30 1.43 1.49 1.50 1.51 1.46 1.50 1.52 1.44 1.39 1.49 1.41 1.37 1.37 1.36 1.28 1.34 1.46 1.45 1.46 1.41 1.38 1.26 1.11 1.13 1.20 1.29 1.32 1.61 1.84 1.96 2.07 2.14 2.22 2.39 2.49 2.64 2.49 2.36 2.22 2.07 1.77
1.07 1.19 1.25 1.34 1.42 1.38 1.33 1.37 1.39 1.42 1.42 1.42 1.35 1.35 1.31 1.12 1.16 1.18 1.17 1.21 1.28 1.28 1.31 1.32 1.18 1.03 0.98 1.05 1.07 1.22 1.47 1.63 1.82 2.06 2.20 2.40 2.49 2.47 2.61 2.57 2.47 2.31 2.12
1.02 1.07 1.15 1.28 1.37 1.36 1.29 1.34 1.40 1.42 1.40 1.32 1.25 1.25 1.24 1.17 1.05 0.96 0.95 1.08 1.22 1.27 1.29 1.33 1.14 1.01 1.00 0.93 1.01 1.08 1.12 1.20 1.33 1.67 1.94 2.06 2.09 2.11 2.38 2.50 2.50 2.40 2.31
1.01 1.12 1.18 1.30 1.34 1.36 1.33 1.28 1.30 1.28 1.28 1.29 1.22 1.20 1.28 1.20 1.09 0.93 0.85 0.84 1.00 1.08 1.10 1.14 1.16 1.16 1.08 1.05 1.03 1.04 1.00 1.01 1.07 1.14 1.29 1.44 1.65 1.84 2.05 2.29 2.52 2.48 2.44
1.00 1.13 1.25 1.39 1.42 1.41 1.39 1.35 1.36 1.35 1.31 1.29 1.27 1.30 1.33 1.31 1.21 1.03 0.95 0.96 1.09 1.14 1.17 1.18 1.22 1.27 1.23 1.05 1.00 1.04 1.07 1.12 1.06 1.09 1.06 1.13 1.24 1.36 1.53 1.78 2.08 2.39 2.61
1.05 1.15 1.28 1.39 1.50 1.46 1.49 1.52 1.48 1.43 1.38 1.35 1.40 1.43 1.40 1.40 1.24 1.02 0.99 1.05 1.25 1.34 1.46 1.46 1.34 1.19 1.15 1.01 1.00 1.09 1.07 1.09 1.03 1.02 0.98 0.95 0.96 1.10 1.23 1.40 1.62 1.92 2.19
1.15 1.23 1.35 1.45 1.49 1.49 1.55 1.60 1.57 1.52 1.55 1.47 1.38 1.40 1.45 1.34 1.09 0.85 0.87 0.96 1.19 1.37 1.40 1.38 1.27 1.07 0.95 0.91 0.88 0.95 1.01 0.96 0.96 1.02 1.08 1.09 1.08 1.12 1.16 1.23 1.46 1.63 1.74
1.28 1.31 1.42 1.55 1.40 1.39 1.61 1.68 1.68 1.68 1.67 1.59 1.51 1.42 1.45 1.43 1.15 0.94 0.88 0.93 1.09 1.34 1.49 1.44 1.29 1.11 1.00 0.93 0.81 0.82 0.85 0.79 0.84 0.97 1.05 1.09 1.10 1.10 1.16 1.26 1.42 1.59 1.73
1.38 1.43 1.46 1.52 1.63 1.71 1.74 1.78 1.76 1.71 1.69 1.64 1.59 1.50 1.49 1.56 1.49 1.19 1.04 1.02 1.11 1.19 1.31 1.43 1.31 1.06 0.90 0.84 0.81 0.73 0.64 0.64 0.75 0.84 0.91 0.97 0.99 1.03 1.15 1.30 1.48 1.58 1.60
1.54 1.60 1.61 1.62 1.65 1.78 1.94 1.91 1.81 1.69 1.71 1.73 1.65 1.65 1.67 1.68 1.61 1.41 1.26 1.17 1.17 1.16 1.17 1.17 1.14 1.02 0.86 0.86 0.87 0.77 0.67 0.73 0.78 0.76 0.81 0.90 0.94 1.02 1.14 1.22 1.34 1.50 1.61
1.71 1.70 1.71 1.76 1.78 1.83 1.82 1.75 1.71 1.65 1.57 1.65 1.68 1.68 1.67 1.64 1.51 1.40 1.34 1.31 1.27 1.20 1.12 1.17 1.14 1.16 1.06 1.01 1.03 0.98 0.94 0.97 0.94 0.88 0.89 0.92 0.98 1.03 1.08 1.17 1.28 1.36 1.46
1.96 1.84 1.82 1.84 1.86 1.84 1.83 1.61 1.41 1.33 1.29 1.24 1.30 1.32 1.30 1.26 1.19 1.11 1.09 1.08 1.08 1.06 1.00 1.12 1.24 1.26 1.24 1.23 1.23 1.22 1.20 1.16 1.15 1.16 1.13 1.08 1.09 1.11 1.10 1.14 1.25 1.32 1.31
2.09 2.03 1.93 1.87 1.81 1.75 1.77 1.76 1.63 1.46 1.41 1.27 1.14 1.07 1.06 1.01 0.95 0.92 0.94 0.97 0.98 0.97 0.96 1.09 1.25 1.30 1.32 1.34 1.29 1.26 1.30 1.25 1.24 1.25 1.22 1.22 1.24 1.25 1.21 1.20 1.27 1.34 1.31
2.00 1.95 1.87 1.81 1.75 1.70 1.71 1.73 1.67 1.64 1.62 1.50 1.31 1.19 1.07 0.94 0.89 0.89 0.95 0.98 0.99 0.98 1.06 1.21 1.36 1.36 1.38 1.37 1.30 1.24 1.25 1.22 1.20 1.20 1.21 1.21 1.22 1.27 1.28 1.25 1.25 1.32 1.31
1.86 1.78 1.72 1.72 1.76 1.77 1.78 1.82 1.81 1.82 1.81 1.74 1.54 1.37 1.23 1.01 0.91 0.94 0.96 0.96 1.06 1.15 1.23 1.34 1.36 1.34 1.36 1.34 1.28 1.25 1.28 1.25 1.21 1.21 1.19 1.19 1.19 1.29 1.31 1.28 1.24 1.27 1.23
1.90 1.86 1.79 1.71 1.68 1.75 1.82 1.78 1.79 1.87 1.85 1.77 1.68 1.47 1.21 1.06 1.00 1.01 0.97 1.00 1.10 1.17 1.20 1.22 1.20 1.19 1.22 1.24 1.25 1.27 1.32 1.29 1.28 1.26 1.20 1.18 1.19 1.24 1.25 1.24 1.21 1.20 1.19
1.66 1.62 1.57 1.46 1.43 1.48 1.60 1.66 1.69 1.80 1.78 1.68 1.57 1.43 1.21 1.01 1.04 1.08 1.09 1.09 1.11 1.13 1.13 1.13 1.12 1.10 1.08 1.14 1.18 1.20 1.24 1.25 1.21 1.16 1.13 1.11 1.09 1.14 1.13 1.10 1.11 1.09 1.10
1.61 1.58 1.48 1.41 1.44 1.49 1.53 1.56 1.66 1.73 1.70 1.63 1.48 1.32 1.22 1.07 1.04 1.03 1.00 0.99 0.98 1.00 1.01 1.10 1.13 1.10 1.07 1.12 1.15 1.15 1.14 1.09 1.05 1.01 0.98 0.95 0.97 1.03 1.04 1.05 1.09 1.09 1.08
1.74 1.69 1.68 1.66 1.58 1.62 1.61 1.63 1.69 1.66 1.60 1.59 1.50 1.35 1.27 1.26 1.17 1.09 1.01 0.96 0.93 0.93 0.93 0.96 0.99 0.98 0.97 0.98 1.00 1.00 0.95 0.92 0.89 0.83 0.84 0.86 0.89 0.94 0.97 0.99 1.06 1.10 1.08
1.78 1.78 1.68 1.59 1.54 1.53 1.57 1.65 1.66 1.55 1.45 1.43 1.39 1.28 1.25 1.25 1.18 1.10 0.96 0.88 0.88 0.86 0.84 0.83 0.80 0.76 0.77 0.79 0.83 0.84 0.79 0.76 0.75 0.76 0.76 0.81 0.84 0.86 0.89 0.93 1.00 1.05 1.06
1.65 1.69 1.69 1.61 1.50 1.41 1.39 1.41 1.38 1.32 1.26 1.23 1.23 1.21 1.20 1.14 1.05 0.95 0.87 0.88 0.89 0.85 0.77 0.74 0.73 0.73 0.72 0.71 0.72 0.73 0.76 0.76 0.77 0.73 0.73 0.78 0.82 0.87 0.88 0.92 0.99 1.05 1.05
1.48 1.49 1.44 1.36 1.25 1.17 1.14 1.16 1.14 1.07 1.04 1.00 0.99 1.00 0.96 0.92 0.90 0.83 0.76 0.76 0.77 0.76 0.72 0.70 0.72 0.75 0.77 0.74 0.70 0.68 0.66 0.64 0.67 0.68 0.64 0.65 0.75 0.84 0.84 0.81 0.81 0.90 0.94